Weather in Provideniya

Russia / Chukotka Autonomous Okrug     64°25′38″N   173°13′08″W
temp.,
°C
wind,
m/s
gust,
m/s
humid.,
%
clouds,
%
prec.,
mm/h
press.,
hPa
HPBL,
m
8 march, mon
mon800:00−17ne3397100 4.1 99758
03:00−12ene2296100 2.8 99541
06:00−5e31198100 8.9 991483
09:00−2se41498100 6.5 989667
12:00−1sse51499100 13.2 9881027
15:00−3sw4897100 4.9 988544
18:00−6sw3496100 6.7 988120
21:00−7wsw3492100 0.4 98998
9 march, tue
tue900:00−10wsw2289100 0.4 98921
03:00−13wsw118499 0.0 99121
06:00−15sw338187 0.0 99320
09:00−15ssw449119 0.0 99761
12:00−12sw579322 0.0 999370
15:00−13sw2296100 0.3 100180
18:00−15wsw1196100 0.7 100320
21:00−19wsw1110094 0.1 100520
10 march, wed
wed1000:00−20sw119964 0.1 100720
03:00−22sw1110078 0.1 100820
06:00−23wsw2210089 0.1 101020
09:00−23wsw229498 0.0 101225
12:00−24w229363 0.0 1015214
15:00−28w228915 0.0 101621
18:00−32w22968 0.0 101919
21:00−33wnw22951 0.0 102119
11 march, thu
thu1100:00−33wnw22921 0.0 102319
03:00−33w22930 0.0 102419
06:00−32w22880 0.0 102519
09:00−28w22770 0.0 102620
12:00−25wsw22780 0.0 102667
15:00−26wsw22730 0.0 102619
18:00−29wsw12660 0.0 102619
21:00−29wsw11710 0.0 102619
12 march, fri
fri1200:00−28nnw00730 0.0 102520
03:00−25ne119723 0.0 102320
06:00−25ne229611 0.0 102320
09:00−22ne22910 0.0 102420
12:00−19ene22930 0.0 102438
15:00−20ene22957 0.0 102320
18:00−20ene229853 0.0 102122
21:00−18ne3298100 0.9 101966